Beach, ND

7:59 PM MST on January 21, 2018 (GMT -0700)
Beach

Weather History for K20U - February, 2013

Change the Weather History Date:

Friday, February 22, 2013

  Actual Average (KGDV) Record (KGDV)
Temperature  
Mean Temperature 26 °F -  
Max Temperature 37 °F 30 °F 66 °F (2002)
Min Temperature 14 °F 11 °F -11 °F (2015)
Degree Days  
Heating Degree Days 40    
Moisture  
Dew Point 19 °F    
Average Humidity 81    
Maximum Humidity 100    
Minimum Humidity 52    
Precipitation  
Precipitation 0.00 in - - ()
Sea Level Pressure  
Sea Level Pressure 29.82 in    
Wind  
Wind Speed 8 mph (SSW)    
Max Wind Speed 13 mph    
Max Gust Speed -    
Visibility 10 miles    
Events      
Averages and records for this station are not official NWS values.
T = Trace of Precipitation, MM = Missing Value Source: NWS Daily Summary

Daily Weather History Graph

Daily Weather History Graph

Search for Another Location

Airport or City:

Trip Planner

Search our weather history database for the weather conditions in past years. The results will help you decide how hot, cold, wet, or windy it might be!

Date:

Astronomy

Feb. 22, 2013 Rise Set
Actual Time 6:47 AM MST 5:31 PM MST
Civil Twilight 6:17 AM MST 6:02 PM MST
Nautical Twilight 5:41 AM MST 6:37 PM MST
Astronomical Twilight 5:06 AM MST 7:12 PM MST
Moon 2:38 PM MST 4:42 AM MST
Length of Visible Light 11h 45m
Length of Day
10h 43m
Waxing Gibbous, 90% of the Moon is Illuminated
Feb 22
Waxing Gibbous
Feb 25
Full
Mar 4
Last Quarter
Mar 11
New
Mar 19
First Quarter

Hourly Weather History & Observations

Time (MST) Temp. Windchill Dew Point Humidity Pressure Visibility Wind Dir Wind Speed Gust Speed Precip Events Conditions
12:15 AM 17.6 °F 8.2 °F 15.8 °F 93% 29.91 in 10.0 mi South 6.9 mph - N/A   Overcast
12:35 AM 15.8 °F 10.2 °F 14.0 °F 93% 29.91 in 10.0 mi SSE 3.5 mph - N/A   Mostly Cloudy
12:55 AM 15.8 °F 7.2 °F 14.0 °F 93% 29.91 in 10.0 mi SSE 5.8 mph - N/A   Overcast
1:15 AM 14.0 °F 5.1 °F 14.0 °F 100% 29.91 in 10.0 mi SSE 5.8 mph - N/A   Mostly Cloudy
1:55 AM 15.8 °F 6.1 °F 14.0 °F 93% 29.90 in 10.0 mi SSE 6.9 mph - N/A   Overcast
2:15 AM 15.8 °F 5.1 °F 14.0 °F 93% 29.90 in 10.0 mi SSE 8.1 mph - N/A   Overcast
2:35 AM 15.8 °F 3.4 °F 15.8 °F 100% 29.89 in 10.0 mi SSE 10.4 mph - N/A   Overcast
2:55 AM 15.8 °F 3.4 °F 15.8 °F 100% 29.89 in 10.0 mi SSE 10.4 mph - N/A   Overcast
3:15 AM 15.8 °F 2.7 °F 14.0 °F 93% 29.88 in 10.0 mi SSE 11.5 mph - N/A   Overcast
3:35 AM 15.8 °F 4.2 °F 14.0 °F 93% 29.88 in 10.0 mi SSE 9.2 mph - N/A   Overcast
3:55 AM 15.8 °F 5.1 °F 14.0 °F 93% 29.88 in 10.0 mi SSE 8.1 mph - N/A   Overcast
4:15 AM 15.8 °F 5.1 °F 14.0 °F 93% 29.89 in 10.0 mi South 8.1 mph - N/A   Overcast
4:35 AM 15.8 °F 4.2 °F 14.0 °F 93% 29.88 in 10.0 mi South 9.2 mph - N/A   Overcast
4:55 AM 15.8 °F 5.1 °F 14.0 °F 93% 29.88 in 10.0 mi SSE 8.1 mph - N/A   Overcast
5:15 AM 14.0 °F 2.9 °F 12.2 °F 93% 29.89 in 10.0 mi SE 8.1 mph - N/A   Overcast
5:35 AM 14.0 °F 2.0 °F 12.2 °F 93% 29.89 in 10.0 mi SSE 9.2 mph - N/A   Overcast
5:55 AM 14.0 °F 1.2 °F 10.4 °F 86% 29.89 in 10.0 mi SSE 10.4 mph - N/A   Scattered Clouds
6:15 AM 14.0 °F 0.5 °F 12.2 °F 93% 29.89 in 10.0 mi SSE 11.5 mph - N/A   Clear
6:35 AM 14.0 °F 2.9 °F 12.2 °F 93% 29.88 in 10.0 mi SSE 8.1 mph - N/A   Clear
6:55 AM 14.0 °F 2.0 °F 12.2 °F 93% 29.88 in 10.0 mi SSE 9.2 mph - N/A   Clear
7:15 AM 14.0 °F 3.9 °F 12.2 °F 93% 29.88 in 10.0 mi South 6.9 mph - N/A   Clear
7:35 AM 14.0 °F 6.5 °F 12.2 °F 93% 29.88 in 10.0 mi SW 4.6 mph - N/A   Clear
7:55 AM 15.8 °F 7.2 °F 14.0 °F 93% 29.88 in 10.0 mi South 5.8 mph - N/A   Clear
8:15 AM 17.6 °F 8.2 °F 15.8 °F 93% 29.88 in 10.0 mi South 6.9 mph - N/A   Clear
8:35 AM 19.4 °F 11.5 °F 17.6 °F 93% 29.88 in 10.0 mi South 5.8 mph - N/A   Partly Cloudy
8:55 AM 19.4 °F 10.4 °F 17.6 °F 93% 29.88 in 10.0 mi SSW 6.9 mph - N/A   Clear
9:15 AM 23.0 °F 15.8 °F 17.6 °F 80% 29.88 in 10.0 mi SSW 5.8 mph - N/A   Clear
9:35 AM 24.8 °F 17.9 °F 19.4 °F 80% 29.87 in 10.0 mi SSW 5.8 mph - N/A   Clear
9:55 AM 26.6 °F 17.5 °F 19.4 °F 74% 29.87 in 10.0 mi WSW 9.2 mph - N/A   Clear
10:15 AM 28.4 °F 19.7 °F 21.2 °F 74% 29.86 in 10.0 mi SW 9.2 mph - N/A   Clear
10:35 AM 28.4 °F 20.4 °F 21.2 °F 74% 29.86 in 10.0 mi WSW 8.1 mph - N/A   Clear
10:55 AM 32.0 °F 24.8 °F 23.0 °F 69% 29.86 in 10.0 mi WSW 8.1 mph - N/A   Clear
11:15 AM 32.0 °F 24.8 °F 23.0 °F 69% 29.85 in 10.0 mi West 8.1 mph - N/A   Clear
11:35 AM 32.0 °F 24.2 °F 23.0 °F 69% 29.85 in 10.0 mi WSW 9.2 mph - N/A   Clear
11:55 AM 32.0 °F 24.8 °F 23.0 °F 69% 29.85 in 10.0 mi WSW 8.1 mph - N/A   Clear
12:15 PM 32.0 °F 25.6 °F 23.0 °F 69% 29.84 in 10.0 mi SW 6.9 mph - N/A   Clear
12:35 PM 32.0 °F 26.4 °F 23.0 °F 69% 29.83 in 10.0 mi SW 5.8 mph - N/A   Clear
12:55 PM 35.6 °F 28.0 °F 24.8 °F 65% 29.81 in 10.0 mi WSW 10.4 mph - N/A   Clear
1:15 PM 35.6 °F 27.5 °F 24.8 °F 65% 29.80 in 10.0 mi West 11.5 mph - N/A   Clear
1:35 PM 35.6 °F 27.5 °F 23.0 °F 60% 29.79 in 10.0 mi West 11.5 mph - N/A   Clear
1:55 PM 37.4 °F 30.3 °F 23.0 °F 56% 29.79 in 10.0 mi West 10.4 mph - N/A   Partly Cloudy
2:15 PM 37.4 °F 29.3 °F 23.0 °F 56% 29.78 in 10.0 mi WSW 12.7 mph - N/A   Partly Cloudy
2:35 PM 35.6 °F 27.5 °F 23.0 °F 60% 29.77 in 10.0 mi West 11.5 mph - N/A   Partly Cloudy
2:55 PM 37.4 °F 30.8 °F 23.0 °F 56% 29.77 in 10.0 mi SW 9.2 mph - N/A   Partly Cloudy
3:15 PM 37.4 °F 31.4 °F 23.0 °F 56% 29.77 in 10.0 mi SW 8.1 mph - N/A   Clear
3:35 PM 37.4 °F 31.4 °F 23.0 °F 56% 29.77 in 10.0 mi SW 8.1 mph - N/A   Partly Cloudy
3:55 PM 37.4 °F 32.1 °F 21.2 °F 52% 29.77 in 10.0 mi SW 6.9 mph - N/A   Partly Cloudy
4:15 PM 37.4 °F 32.8 °F 21.2 °F 52% 29.76 in 10.0 mi SW 5.8 mph - N/A   Clear
4:35 PM 35.6 °F 30.7 °F 23.0 °F 60% 29.76 in 10.0 mi SSW 5.8 mph - N/A   Clear
4:55 PM 33.8 °F 28.6 °F 23.0 °F 65% 29.76 in 10.0 mi South 5.8 mph - N/A   Partly Cloudy
5:15 PM 32.0 °F 25.6 °F 24.8 °F 75% 29.76 in 10.0 mi SSW 6.9 mph - N/A   Partly Cloudy
5:35 PM 30.2 °F 24.3 °F 24.8 °F 80% 29.76 in 10.0 mi South 5.8 mph - N/A   Partly Cloudy
5:55 PM 28.4 °F 21.2 °F 23.0 °F 80% 29.76 in 10.0 mi SSW 6.9 mph - N/A   Scattered Clouds
6:15 PM 26.6 °F 20.0 °F 23.0 °F 86% 29.75 in 10.0 mi SSW 5.8 mph - N/A   Overcast
6:35 PM 28.4 °F 22.2 °F 24.8 °F 86% 29.75 in 10.0 mi South 5.8 mph - N/A   Overcast
6:55 PM 26.6 °F 20.0 °F 23.0 °F 86% 29.75 in 10.0 mi SSW 5.8 mph - N/A   Overcast
7:15 PM 28.4 °F 20.4 °F 23.0 °F 80% 29.74 in 10.0 mi SSW 8.1 mph - N/A   Mostly Cloudy
7:35 PM 26.6 °F 17.5 °F 21.2 °F 80% 29.74 in 10.0 mi SW 9.2 mph - N/A   Partly Cloudy
7:55 PM 26.6 °F 18.2 °F 21.2 °F 80% 29.73 in 10.0 mi SW 8.1 mph - N/A   Clear
8:15 PM 24.8 °F 19.1 °F 19.4 °F 80% 29.73 in 10.0 mi South 4.6 mph - N/A   Clear
8:35 PM 23.0 °F 13.1 °F 19.4 °F 86% 29.72 in 10.0 mi SSW 9.2 mph - N/A   Clear
8:55 PM 23.0 °F 14.7 °F 19.4 °F 86% 29.72 in 10.0 mi South 6.9 mph - N/A   Clear
9:15 PM 23.0 °F 13.1 °F 17.6 °F 80% 29.71 in 10.0 mi SSW 9.2 mph - N/A   Clear
9:35 PM 23.0 °F 15.8 °F 17.6 °F 80% 29.71 in 10.0 mi South 5.8 mph - N/A   Clear
9:55 PM 21.2 °F 14.9 °F 17.6 °F 86% 29.71 in 10.0 mi South 4.6 mph - N/A   Clear
10:15 PM 21.2 °F 12.6 °F 17.6 °F 86% 29.70 in 10.0 mi South 6.9 mph - N/A   Clear
10:55 PM 21.2 °F 16.4 °F 17.6 °F 86% 29.69 in 10.0 mi South 3.5 mph - N/A   Clear
11:15 PM 21.2 °F 14.9 °F 17.6 °F 86% 29.68 in 10.0 mi South 4.6 mph - N/A   Clear
11:35 PM 19.4 °F 14.3 °F 15.8 °F 86% 29.68 in 10.0 mi South 3.5 mph - N/A   Clear
11:55 PM 19.4 °F 11.5 °F 15.8 °F 86% 29.67 in 10.0 mi SSW 5.8 mph - N/A   Clear